Date,TemperatureHighF,TemperatureAvgF,TemperatureLowF,DewpointHighF,DewpointAvgF,DewpointLowF,HumidityHigh,HumidityAvg,HumidityLow,PressureMaxIn,PressureMinIn,WindSpeedMaxMPH,WindSpeedAvgMPH,GustSpeedMaxMPH,PrecipitationSumIn
2013-1-1,33.0,23.3,14.5,32.0,19.7,11.6,96,86,74,30.31,30.13,12,6,16,0.00
2013-1-2,22.7,17.3,0.0,15.9,12.9,9.9,88,82,72,30.33,30.28,5,1,8,0.01
2013-1-3,36.7,28.3,17.6,28.7,22.3,14.0,89,78,71,30.44,30.27,8,4,14,0.02
2013-1-4,36.2,29.8,20.7,27.1,24.5,18.6,94,81,67,30.49,30.37,9,3,15,0.00
2013-1-5,42.0,35.5,27.8,33.2,28.3,21.9,84,75,63,30.39,30.16,10,6,18,0.00
2013-1-6,38.6,32.2,21.6,33.9,27.2,19.5,93,82,73,30.45,30.11,9,4,19,0.00
2013-1-7,40.9,30.2,22.4,28.6,25.4,20.3,93,83,59,30.48,30.23,9,3,15,0.00
2013-1-8,48.3,39.6,29.6,38.4,31.4,26.3,88,73,51,30.28,30.19,11,5,15,0.00
2013-1-9,55.7,46.5,38.6,45.3,39.5,33.6,96,78,51,30.52,30.22,12,3,23,0.08
2013-1-10,60.1,46.7,39.2,59.0,42.6,33.0,99,86,70,30.50,29.83,12,6,20,0.05
2013-1-11,60.9,56.6,52.7,59.4,51.7,48.7,96,84,71,29.93,29.82,16,9,26,0.04
2013-1-12,61.8,52.2,35.7,55.1,48.5,33.6,95,88,75,29.98,29.79,17,8,26,0.01
2013-1-13,32.2,26.2,21.5,30.3,22.5,15.6,93,86,76,30.40,30.01,13,8,21,0.16
2013-1-14,26.6,22.0,19.0,20.0,16.7,13.7,89,80,74,30.55,30.40,10,6,14,0.00
2013-1-15,29.9,24.6,20.8,25.4,21.3,18.3,90,87,81,30.47,30.15,8,5,10,0.00
2013-1-16,38.9,31.2,22.4,27.5,24.5,20.4,93,77,53,30.19,30.07,8,2,14,0.00
2013-1-17,39.2,34.0,24.8,33.9,28.1,21.6,88,79,64,30.53,30.17,15,5,22,0.00
2013-1-18,45.6,34.8,22.9,32.9,26.8,20.9,92,74,55,30.56,30.20,18,8,26,0.00
2013-1-19,56.2,46.4,39.3,40.2,36.0,31.4,78,67,54,30.22,29.95,18,11,31,0.00
2013-1-20,45.4,30.9,25.3,35.6,20.0,13.2,82,64,48,30.37,30.11,17,7,26,0.00
2013-1-21,25.3,22.6,20.3,17.6,15.7,9.4,78,74,62,30.36,30.31,9,6,16,0.00
2013-1-24,26.7,25.2,0.0,13.0,11.5,9.5,59,55,48,30.49,30.35,8,3,14,0.00
2013-1-25,38.9,31.3,26.1,26.0,18.6,9.2,76,59,48,30.36,30.16,8,3,15,0.00
2013-1-26,35.0,30.0,21.4,24.1,19.4,13.8,74,65,51,30.46,30.26,8,2,11,0.00
2013-1-27,48.6,35.8,28.6,45.8,31.7,20.0,95,85,70,30.40,30.05,15,7,24,0.19
2013-1-28,61.0,56.6,48.1,59.1,54.7,45.8,95,93,90,30.06,29.93,18,11,25,0.07
2013-1-29,67.3,63.5,56.7,60.4,59.3,54.3,95,86,75,29.93,29.37,22,15,41,0.50
2013-1-30,56.5,39.5,29.0,54.2,34.6,20.4,96,83,70,29.90,29.38,15,10,38,1.38
2013-1-31,31.4,25.7,12.8,26.4,17.7,3.1,90,71,64,30.40,29.90,15,9,27,0.00
2013-2-1,25.6,17.4,10.1,19.2,8.4,2.3,83,67,57,30.57,30.33,11,5,19,0.00
2013-2-2,40.1,30.7,24.8,27.9,22.2,16.5,83,71,59,30.32,30.10,13,7,19,0.00
2013-2-3,34.4,29.3,25.2,29.1,23.1,19.2,94,78,58,30.20,30.05,14,3,24,0.01
2013-2-4,49.8,36.0,26.6,41.6,28.8,19.3,90,75,66,30.10,29.85,14,7,21,0.01
2013-2-5,50.3,37.1,29.6,39.6,31.8,26.7,90,82,65,30.17,29.93,11,4,22,0.00
2013-2-6,48.6,37.4,24.7,34.8,30.9,23.2,95,79,54,30.29,30.14,7,2,13,0.01
2013-2-7,60.0,45.9,36.6,49.1,39.5,32.4,94,79,57,30.15,29.86,15,6,26,0.15
2013-2-8,40.2,34.6,32.1,38.1,30.6,26.6,92,85,80,30.43,30.02,17,10,27,0.01
2013-2-9,43.6,36.7,31.1,34.2,30.0,26.2,83,77,65,30.43,30.11,9,4,15,0.01
2013-2-10,55.1,47.2,38.9,52.5,43.8,34.4,94,88,65,30.13,29.66,15,10,28,0.71
2013-2-11,51.2,42.5,36.5,39.9,31.7,28.6,76,66,53,30.18,29.76,16,8,29,0.00
2013-2-12,46.2,37.2,27.3,34.9,30.8,25.1,92,78,58,30.21,29.96,7,1,9,0.00
2013-2-13,50.4,41.3,35.0,36.4,33.7,30.6,92,76,52,29.97,29.84,10,3,19,0.00
2013-2-14,54.3,43.6,36.4,39.7,35.3,32.3,86,74,53,30.08,29.86,10,6,25,0.00
2013-2-15,37.4,33.5,27.0,34.4,25.1,18.4,91,72,50,30.27,30.07,14,5,22,0.00
2013-2-16,33.7,27.3,22.8,20.9,16.6,13.4,79,65,44,30.30,30.21,10,4,16,0.00
2013-2-17,42.8,31.6,20.7,25.7,21.1,14.7,87,66,46,30.29,30.04,10,4,19,0.00
2013-2-18,55.9,45.1,35.2,47.9,39.1,25.1,93,80,61,30.04,29.61,22,13,39,0.28
2013-2-19,35.1,29.2,24.8,30.2,20.7,14.7,82,71,62,30.33,29.88,14,7,23,0.00
2013-2-20,25.4,22.7,17.9,19.0,14.8,11.4,85,72,63,30.47,30.31,9,5,14,0.00
2013-2-21,33.3,25.7,19.4,32.0,22.3,16.3,100,87,77,30.40,29.87,18,7,29,0.01
2013-2-22,37.4,33.3,25.0,34.5,30.3,21.3,96,88,79,30.11,29.86,11,4,19,0.06
2013-2-23,32.9,26.7,21.3,24.2,21.5,18.5,91,81,67,30.10,30.04,7,2,11,0.00
2013-2-24,43.6,31.5,18.4,32.7,25.2,16.5,100,78,59,30.21,30.07,9,2,12,0.00
2013-2-25,45.6,39.0,32.1,36.8,31.9,27.8,85,76,62,30.13,29.69,18,9,28,0.03
2013-2-26,50.9,40.3,35.0,45.8,37.8,33.1,95,91,73,29.69,29.40,20,8,27,0.68
2013-2-27,36.7,34.4,32.8,33.8,32.1,30.0,95,92,87,29.88,29.64,11,8,22,0.05
2013-2-28,36.0,34.2,32.9,33.9,31.7,30.4,94,90,87,30.11,29.88,8,5,17,0.00
2013-3-1,35.5,32.6,30.1,32.1,30.5,27.4,95,92,80,30.19,30.08,13,7,22,0.05
2013-3-2,34.4,29.6,26.0,27.4,24.0,19.5,91,80,58,30.26,30.19,14,8,23,0.00
2013-3-3,36.4,29.7,21.1,24.6,21.2,19.0,92,71,54,30.26,30.12,6,2,10,0.00
2013-3-4,45.7,39.4,32.6,34.5,30.2,24.0,81,70,60,30.14,29.85,13,6,27,0.00
2013-3-5,41.5,35.7,31.4,34.8,31.6,26.3,95,85,72,30.06,29.81,18,6,29,0.09
2013-3-6,33.9,31.9,29.0,29.1,26.9,25.0,89,82,77,30.40,30.06,17,9,34,0.01
2013-3-7,41.6,32.6,25.8,33.1,27.6,22.9,92,82,67,30.48,30.39,9,2,13,0.00
2013-3-8,49.8,39.8,29.9,36.1,31.7,27.1,90,74,56,30.51,30.28,9,3,18,0.00
2013-3-9,60.0,49.6,40.3,42.3,36.9,32.3,75,62,49,30.28,29.88,12,6,21,0.01
2013-3-10,64.7,56.7,50.0,53.7,47.4,38.1,95,73,48,29.88,29.66,20,9,36,0.29
2013-3-11,50.6,38.8,34.9,48.9,35.6,29.9,95,89,80,30.01,29.69,14,6,21,0.03
2013-3-12,47.9,37.6,30.7,32.8,28.8,25.7,92,71,50,30.20,30.00,12,5,24,0.00
2013-3-13,38.6,32.7,28.4,27.9,22.8,19.8,84,67,52,30.45,30.20,14,6,27,0.00
2013-3-14,45.7,34.7,23.8,31.4,26.1,19.9,90,72,55,30.45,30.17,14,5,22,0.00
2013-3-15,65.7,52.9,31.1,53.4,41.6,28.5,90,67,48,30.17,29.68,15,5,26,0.00
2013-3-16,62.6,47.4,37.4,53.0,41.7,33.3,93,81,67,30.08,29.66,17,8,27,0.03
2013-3-17,37.7,35.8,33.7,34.9,32.5,29.2,94,88,82,30.14,29.85,18,10,22,0.83
2013-3-18,46.0,41.9,35.9,39.8,36.9,27.7,94,82,72,30.02,29.75,11,6,21,0.04
2013-3-19,35.9,31.7,30.6,28.8,22.5,21.7,76,69,67,30.10,30.02,8,4,15,0.00
2013-3-20,31.4,31.4,31.4,22.1,22.1,22.1,68,68,68,30.09,30.09,4,4,13,0.00
2013-3-21,31.4,31.4,31.4,22.1,22.1,22.1,68,68,68,30.09,30.09,4,4,13,0.00
2013-3-22,39.0,35.8,26.3,28.9,23.0,19.4,82,60,46,30.12,30.05,6,1,12,0.00
2013-3-23,52.3,42.9,35.0,36.3,31.6,27.1,82,65,48,30.09,29.84,16,5,24,0.02
2013-3-24,41.8,34.1,31.8,35.6,32.3,30.6,96,93,76,29.90,29.51,17,10,33,0.32
2013-3-25,34.7,32.1,29.8,32.5,29.8,27.8,96,91,83,30.19,29.75,13,7,22,0.08
2013-3-26,39.6,34.5,30.5,29.3,27.5,24.9,90,76,59,30.39,30.19,9,4,17,0.00
2013-3-27,45.9,36.1,25.2,31.8,27.5,22.4,91,72,52,30.45,30.36,5,2,10,0.00
2013-3-28,54.4,42.8,30.9,38.8,32.2,26.6,89,68,50,30.44,30.31,7,1,12,0.00
2013-3-29,56.9,49.3,42.6,46.9,40.0,31.7,91,71,56,30.32,30.22,7,2,12,0.00
2013-3-30,56.9,45.8,34.5,47.2,41.8,33.1,96,87,60,30.24,29.94,13,4,20,0.06
2013-3-31,63.6,53.1,46.0,51.2,46.7,40.6,100,80,55,29.94,29.85,9,2,17,0.00
2013-4-1,49.6,41.8,35.6,40.4,29.2,24.8,74,61,46,30.25,29.94,14,8,21,0.00
2013-4-2,46.6,37.1,28.0,27.1,23.4,18.1,80,59,34,30.39,30.25,9,2,15,0.00
2013-4-3,50.9,41.1,30.9,33.3,26.6,22.8,82,58,34,30.44,30.30,13,4,23,0.00
2013-4-4,59.7,46.2,32.5,34.1,28.4,21.2,79,53,24,30.30,30.05,7,2,13,0.00
2013-4-5,63.1,51.3,37.9,41.2,34.6,28.3,76,54,37,30.18,30.07,9,2,15,0.00
2013-4-6,71.7,61.1,50.1,46.7,39.5,33.6,57,46,33,30.10,29.77,24,12,38,0.00
2013-4-7,76.7,64.5,55.1,58.3,51.4,46.5,93,64,40,29.95,29.83,16,4,28,0.22
2013-4-8,74.0,66.9,60.8,61.5,57.9,54.1,89,73,62,29.92,29.77,16,9,28,0.00
2013-4-9,77.5,70.8,64.5,64.6,61.2,57.3,82,72,61,29.93,29.83,24,9,36,0.00
2013-4-10,81.2,72.8,56.8,68.7,65.4,55.1,94,78,63,29.84,29.62,21,10,33,0.60
2013-4-11,64.6,51.3,41.1,62.4,48.0,33.3,96,89,73,29.77,29.58,12,6,25,0.06
2013-4-12,46.7,42.5,38.2,36.3,34.4,32.3,82,73,63,30.04,29.74,15,6,23,0.00
2013-4-13,58.4,48.5,37.3,40.9,37.2,33.5,86,66,47,30.10,29.97,10,4,21,0.00
2013-4-14,75.8,62.3,48.5,54.1,46.3,39.9,77,58,36,29.97,29.69,18,9,32,0.00
2013-4-15,73.5,64.6,56.7,63.1,57.2,50.0,89,77,68,29.92,29.79,14,6,23,0.00
2013-4-16,59.2,51.0,48.5,55.4,49.0,47.1,95,93,89,30.17,29.85,13,8,19,0.35
2013-4-17,81.2,65.3,49.7,71.4,60.5,48.0,97,85,65,30.16,29.75,15,7,23,0.17
2013-4-18,75.3,63.1,43.4,67.7,59.2,38.1,95,88,76,29.75,29.57,22,9,37,2.46
2013-4-19,49.7,42.4,38.6,38.8,32.5,30.0,84,69,49,30.09,29.72,14,7,31,0.00
2013-4-20,53.1,43.6,31.7,37.0,31.8,26.8,92,65,40,30.41,30.09,8,2,15,0.00
2013-4-21,60.4,49.8,38.6,41.4,35.7,31.7,78,60,44,30.48,30.31,9,4,18,0.00
2013-4-22,70.1,59.1,46.3,48.8,42.1,35.2,67,54,40,30.33,30.04,9,2,20,0.00
2013-4-23,60.6,55.3,42.7,58.2,50.3,41.1,96,84,64,30.06,29.84,14,4,24,1.12
2013-4-24,50.4,43.2,39.4,40.9,37.5,34.1,99,81,56,30.29,29.94,12,6,23,0.27
2013-4-25,60.6,49.1,38.1,40.0,36.5,32.6,89,64,40,30.38,30.27,9,4,15,0.00
2013-4-26,62.1,53.1,46.8,49.1,42.6,35.7,89,68,54,30.44,30.30,16,5,22,0.00
2013-4-27,56.7,53.5,50.3,54.2,50.7,46.7,96,90,80,30.33,29.93,8,2,15,0.17
2013-4-28,58.4,55.5,51.4,55.6,53.6,49.4,97,94,87,29.96,29.87,4,1,14,0.10
2013-4-29,74.0,61.1,44.6,61.2,54.4,43.5,100,80,59,29.99,29.85,12,6,19,0.00
2013-4-30,82.8,71.9,62.2,64.0,58.9,56.1,83,65,43,29.97,29.85,12,6,24,0.00
2013-5-1,81.7,72.0,59.8,62.4,58.0,53.3,81,63,42,30.09,29.97,8,3,16,0.00
2013-5-2,79.0,65.0,51.9,66.9,59.5,49.6,95,84,59,30.13,30.02,13,2,22,0.47
2013-5-3,70.2,54.5,47.0,63.1,52.8,45.8,97,94,77,30.06,29.77,9,1,18,0.48
2013-5-4,48.4,46.2,43.8,47.9,44.9,42.7,100,95,93,30.04,29.87,7,1,12,0.52
2013-5-5,59.9,54.3,47.9,56.8,52.6,46.8,97,94,89,30.01,29.89,13,7,22,0.19
2013-5-6,66.4,59.2,53.9,59.7,55.7,51.9,95,89,79,29.98,29.89,12,7,18,0.02
2013-5-7,75.5,64.6,56.6,61.8,56.8,51.5,95,78,46,30.04,29.96,9,1,16,0.00
2013-5-8,81.6,67.0,52.8,60.8,55.6,49.5,96,71,36,30.05,29.97,7,1,11,0.00
2013-5-9,76.5,67.3,62.6,68.3,61.8,57.4,96,83,63,30.00,29.83,17,3,31,0.61
2013-5-10,70.3,62.8,54.6,64.0,59.3,51.0,96,88,75,30.00,29.81,12,4,22,0.02
2013-5-11,68.0,57.5,49.4,57.0,48.0,37.8,94,73,44,30.15,29.97,16,4,27,0.00
2013-5-12,59.7,50.8,42.3,40.4,36.4,30.8,90,60,38,30.24,30.15,11,3,21,0.00
2013-5-13,68.8,55.4,38.9,46.8,39.6,30.7,95,61,30,30.26,30.09,6,1,14,0.00
2013-5-14,89.7,71.3,53.3,66.2,56.3,42.6,72,60,36,30.09,29.80,14,7,23,0.00
2013-5-15,85.8,76.1,65.2,66.5,61.7,56.1,77,62,49,29.94,29.82,13,7,22,0.00
2013-5-16,78.4,70.9,62.6,67.9,63.6,58.6,92,78,56,29.95,29.84,13,4,25,0.00
2013-5-17,76.6,69.4,62.5,67.2,63.7,59.6,94,83,69,29.99,29.92,8,1,16,0.00
2013-5-18,79.1,70.9,63.3,67.6,64.9,61.3,96,82,65,30.01,29.91,5,0,11,0.00
2013-5-19,88.3,76.9,65.8,75.3,69.5,63.4,93,79,62,29.93,29.75,13,5,22,0.00
2013-5-20,82.1,76.4,63.8,72.4,67.9,61.1,92,75,67,29.93,29.73,14,5,29,0.40
2013-5-21,78.6,69.9,63.2,68.2,65.1,61.4,95,85,67,29.92,29.72,13,5,22,0.34
2013-5-22,75.5,68.9,63.5,64.6,61.2,56.6,92,77,58,29.85,29.68,10,5,20,0.00
2013-5-23,64.8,60.3,51.1,60.6,55.6,46.7,94,85,71,30.26,29.85,12,4,21,0.04
2013-5-24,68.3,55.0,42.3,51.2,44.6,37.6,91,70,39,30.42,30.25,10,3,16,0.00
2013-5-25,68.0,58.7,45.6,56.1,49.7,43.6,94,74,51,30.39,30.19,9,2,16,0.00
2013-5-26,75.8,65.3,55.8,63.1,56.4,48.8,81,73,62,30.25,30.05,9,2,18,0.00
2013-5-27,83.0,71.4,63.6,68.1,63.4,59.1,94,77,55,30.05,29.72,18,7,33,0.32
2013-5-28,83.5,74.9,64.4,70.8,66.5,62.6,94,76,61,29.93,29.82,21,10,35,0.01
2013-5-29,84.7,77.1,65.3,71.0,66.8,62.8,93,72,57,29.99,29.87,14,7,24,0.00
2013-5-30,83.7,75.4,66.7,72.2,68.5,62.6,94,79,64,29.95,29.83,16,8,31,0.17
2013-5-31,79.2,71.7,63.1,73.2,67.7,61.6,96,88,75,29.96,29.77,14,8,31,2.29
2013-6-1,72.3,66.9,61.7,67.1,64.3,59.3,96,91,81,29.91,29.74,16,7,28,0.65
2013-6-2,68.3,63.5,59.9,61.9,59.3,56.5,93,86,77,30.03,29.86,10,3,16,0.00
2013-6-3,68.3,60.2,53.2,57.0,53.2,48.8,95,79,58,30.11,30.01,11,3,15,0.00
2013-6-4,72.9,63.7,50.9,62.0,56.6,49.5,96,79,60,30.12,30.01,8,2,14,0.00
2013-6-5,80.2,70.9,60.6,67.2,62.1,58.4,93,75,49,30.04,29.84,4,1,10,0.00
2013-6-6,80.0,71.7,65.6,65.7,63.5,59.2,92,76,50,29.85,29.79,10,3,16,0.00
2013-6-7,75.2,67.2,60.9,64.5,60.2,56.4,92,79,60,29.89,29.82,11,4,18,0.00
2013-6-8,79.0,68.6,57.1,62.5,59.2,55.7,96,74,49,29.98,29.89,6,0,12,0.00
2013-6-9,81.0,69.9,61.3,66.3,61.7,58.6,96,77,52,29.98,29.80,12,3,19,0.32
2013-6-10,77.9,68.2,61.8,67.3,63.5,60.6,96,86,61,29.92,29.78,10,3,14,0.09
2013-6-11,87.9,75.4,58.8,76.0,68.7,57.7,97,81,64,29.99,29.85,11,3,19,0.00
2013-6-12,91.3,83.8,74.5,77.4,74.8,72.0,92,75,60,29.94,29.69,17,6,29,0.00
2013-6-13,83.7,76.2,63.6,73.8,64.4,57.1,89,68,41,29.98,29.70,14,5,21,0.00
2013-6-14,82.3,70.9,58.4,63.2,59.3,56.1,93,69,46,30.10,29.93,0,0,0,0.00
2013-6-15,85.9,74.2,62.2,72.6,64.9,58.8,92,74,53,30.10,29.92,12,3,21,0.22
2013-6-16,80.7,72.1,67.0,74.4,69.4,65.2,96,92,80,30.03,29.92,9,2,16,0.45
2013-6-17,86.4,73.2,65.6,75.4,69.3,63.1,96,88,61,29.95,29.85,20,1,44,1.18
2013-6-18,87.3,73.7,62.6,72.5,66.4,61.4,97,80,48,29.97,29.87,6,1,15,0.01
2013-6-19,84.8,73.3,64.0,71.5,66.5,62.2,95,80,54,30.07,29.97,2,0,13,0.00
2013-6-20,88.3,78.4,68.6,71.6,68.1,65.3,92,72,50,30.13,30.05,4,0,11,0.00
2013-6-21,89.4,80.8,71.3,74.0,70.4,67.2,88,72,50,30.12,30.01,12,4,19,0.00
2013-6-22,88.2,75.7,67.6,76.3,70.2,66.0,95,84,60,30.12,29.98,12,3,20,0.22
2013-6-23,77.9,70.0,66.8,74.1,67.8,65.4,96,93,78,30.10,29.99,14,3,26,0.49
2013-6-24,88.1,76.3,67.2,77.9,71.7,66.0,96,86,66,30.10,29.95,11,5,18,0.03
2013-6-25,90.0,81.5,73.0,77.8,73.9,70.8,93,79,62,29.98,29.80,11,5,20,0.00
2013-6-26,84.8,78.0,71.8,77.8,73.4,66.3,94,86,77,29.88,29.68,23,6,37,0.20
2013-6-27,91.2,80.5,72.4,76.6,72.3,66.8,96,78,48,29.85,29.75,10,2,23,0.01
2013-6-28,86.7,79.1,72.6,72.2,66.6,57.2,92,68,40,29.82,29.67,8,2,17,0.00
2013-6-29,79.5,71.3,65.8,67.5,64.0,61.3,94,78,61,29.70,29.61,9,2,22,0.01
2013-6-30,73.8,68.2,64.3,67.4,63.9,61.2,94,86,73,29.87,29.70,14,6,22,0.40
2013-7-1,70.5,66.3,64.0,65.3,62.3,58.7,95,87,80,29.95,29.86,13,6,20,0.43
2013-7-2,66.3,64.7,62.9,64.4,62.9,61.3,96,94,92,30.03,29.91,13,7,19,0.68
2013-7-3,79.3,69.1,63.0,67.0,62.8,60.1,96,82,55,30.10,30.00,4,0,9,0.01
2013-7-4,81.3,72.1,59.5,68.2,63.3,58.0,95,76,48,30.11,30.02,5,1,11,0.00
2013-7-5,80.3,71.6,63.6,70.8,66.9,62.3,96,86,69,30.10,30.01,8,1,13,0.00
2013-7-6,83.1,73.7,67.0,73.1,68.3,62.9,95,84,62,30.07,29.97,11,3,19,0.00
2013-7-7,86.8,75.8,64.0,74.7,69.0,61.7,93,80,63,30.08,30.00,9,4,15,0.00
2013-7-8,88.5,80.5,71.7,76.5,72.7,68.5,90,78,60,30.10,30.00,11,5,18,0.00
2013-7-9,93.1,84.1,77.2,78.0,75.1,72.1,86,75,56,30.04,29.92,9,5,15,0.00
2013-7-10,84.5,78.6,72.2,78.3,73.9,68.2,93,86,77,29.99,29.86,12,2,26,0.71
2013-7-11,79.0,73.0,64.9,69.7,64.2,59.6,93,75,56,30.06,29.95,14,6,20,0.00
2013-7-12,82.3,71.5,61.4,66.4,61.3,55.5,92,72,46,30.12,30.03,6,1,11,0.00
2013-7-13,82.3,73.2,61.9,68.2,64.3,59.5,93,75,55,30.10,30.02,9,3,16,0.00
2013-7-14,87.0,76.2,64.9,75.7,69.6,62.4,94,81,64,30.16,30.06,8,2,14,0.03
2013-7-15,86.9,78.9,72.4,77.9,74.1,70.4,94,86,69,30.25,30.14,10,1,17,0.08
2013-7-16,90.9,81.3,72.2,78.3,73.5,70.4,95,79,55,30.31,30.23,5,1,12,0.00
2013-7-17,92.5,82.3,71.7,79.2,74.4,70.5,96,79,55,30.32,30.17,2,0,7,0.00
2013-7-18,94.2,83.4,72.3,80.6,74.7,70.9,96,77,50,30.20,30.01,7,1,10,0.00
2013-7-19,90.8,82.4,74.2,76.9,74.0,71.3,92,77,57,30.02,29.86,11,4,17,0.00
2013-7-20,91.8,78.4,70.8,78.2,72.7,68.7,95,83,62,29.91,29.76,16,4,29,0.41
2013-7-21,82.1,74.9,68.6,75.4,71.5,67.4,96,90,73,29.95,29.84,9,1,13,0.01
2013-7-22,88.4,78.4,71.1,76.7,72.0,69.5,96,82,61,29.85,29.78,5,1,14,0.01
2013-7-23,89.5,80.0,71.5,79.3,73.3,65.6,95,81,59,29.89,29.75,9,4,16,0.00
2013-7-24,75.5,68.7,60.8,65.9,58.9,54.4,91,72,49,30.03,29.89,12,5,18,0.00
2013-7-25,79.0,67.5,56.7,63.8,58.7,55.0,95,76,48,30.12,30.02,9,1,15,0.00
2013-7-26,75.8,68.2,58.5,67.8,63.3,56.4,94,85,64,30.08,29.94,8,2,15,0.01
2013-7-27,73.7,67.9,54.8,68.2,58.9,51.7,95,75,50,30.00,29.93,9,3,20,0.00
2013-7-28,79.0,64.6,50.2,60.9,54.5,48.8,95,73,42,30.06,29.99,5,1,13,0.00
2013-7-29,79.8,68.1,53.1,67.5,59.4,51.7,95,76,45,30.17,30.06,0,0,0,0.00
2013-7-30,69.8,68.5,65.2,68.2,65.8,63.4,96,91,83,30.16,30.03,7,3,14,1.32
2013-7-31,81.7,73.4,68.1,75.0,70.0,66.2,97,89,76,30.04,29.96,10,1,17,0.00
2013-8-1,84.3,73.3,63.8,70.7,65.8,61.3,96,80,48,30.06,29.98,7,1,12,0.01
2013-8-2,81.8,72.3,64.6,72.7,67.7,62.4,95,86,70,30.00,29.92,10,3,17,0.13
2013-8-3,82.7,74.3,66.3,73.7,69.2,63.9,96,85,65,30.09,29.92,8,2,14,0.00
2013-8-4,78.7,69.7,59.8,65.9,61.8,58.1,95,77,55,30.18,30.09,0,0,0,0.00
2013-8-5,76.5,68.4,59.9,66.7,63.1,58.5,95,84,62,30.11,29.91,12,3,18,0.00
2013-8-6,85.8,75.4,68.2,76.1,70.4,65.8,96,85,65,29.93,29.86,9,2,14,0.00
2013-8-7,85.3,76.4,70.6,75.0,71.5,68.9,96,86,68,29.92,29.83,8,2,14,0.01
2013-8-8,83.8,74.2,67.1,76.4,71.3,65.9,96,91,77,29.94,29.85,12,0,22,1.28
2013-8-9,81.5,73.6,66.4,72.7,69.5,65.2,96,88,67,30.05,29.92,6,1,10,0.00
2013-8-10,84.8,74.8,67.5,72.5,68.5,65.0,95,82,59,30.12,30.05,7,1,13,0.00
2013-8-11,82.7,71.6,60.5,69.7,63.9,59.1,96,79,51,30.14,30.05,5,0,9,0.00
2013-8-12,81.4,71.8,63.4,75.8,69.0,61.8,96,91,80,30.08,29.89,5,0,9,0.07
2013-8-13,75.3,69.0,59.2,69.2,64.6,55.4,96,86,67,30.13,29.92,11,4,17,0.01
2013-8-14,70.8,61.6,51.8,58.2,54.3,49.8,94,78,55,30.21,30.13,12,3,22,0.00
2013-8-15,72.5,61.8,51.8,59.8,54.9,50.1,95,80,55,30.18,30.09,9,1,15,0.01
2013-8-16,75.2,65.1,54.4,62.5,58.3,52.7,95,80,57,30.16,30.10,10,3,17,0.00
2013-8-17,77.8,67.6,57.5,67.5,61.3,55.2,93,81,59,30.19,30.11,8,2,14,0.00
2013-8-18,82.5,69.8,59.3,69.5,63.8,57.9,95,83,55,30.17,30.08,6,1,11,0.00
2013-8-19,84.3,72.5,60.2,71.4,64.7,59.1,96,79,52,30.14,30.03,5,1,9,0.00
2013-8-20,86.5,74.2,62.1,74.0,67.9,60.7,96,82,58,30.12,30.04,4,0,9,0.00
2013-8-21,87.2,75.9,64.5,73.7,69.1,63.1,96,81,55,30.13,30.02,6,1,13,0.00
2013-8-22,89.3,78.9,69.4,77.6,71.9,67.3,93,80,59,30.09,29.99,6,1,12,0.00
2013-8-23,85.3,75.7,69.0,73.5,70.0,67.2,96,84,61,30.11,30.03,11,3,16,0.23
2013-8-24,87.1,76.1,65.4,72.6,67.5,63.6,95,77,49,30.21,30.11,6,2,11,0.00
2013-8-25,88.8,75.4,62.3,71.9,65.5,60.1,95,74,42,30.27,30.17,6,1,10,0.00
2013-8-26,90.2,79.1,70.5,77.8,72.7,68.5,96,82,53,30.22,30.06,7,3,12,0.00
2013-8-27,90.8,79.8,72.0,78.8,74.0,70.2,95,84,56,30.09,29.98,7,3,12,0.00
2013-8-28,92.2,80.9,70.5,75.0,72.2,69.0,95,77,51,30.02,29.95,6,2,14,0.00
2013-8-29,92.3,80.0,69.2,80.5,74.5,67.5,95,84,65,30.02,29.94,6,0,9,0.00
2013-8-30,94.0,82.1,69.9,79.5,74.9,68.7,96,81,58,29.96,29.81,7,2,13,0.00
2013-8-31,95.6,83.2,72.0,79.4,74.8,68.8,94,78,50,29.85,29.69,11,4,24,0.55
2013-9-1,88.0,76.5,69.4,78.8,72.4,67.9,96,88,71,29.83,29.75,9,1,23,0.00
2013-9-2,81.9,73.4,67.3,70.2,66.7,62.4,95,81,60,29.95,29.82,8,3,14,0.00
2013-9-3,79.3,68.4,59.2,65.3,61.6,57.8,96,80,54,30.08,29.94,8,1,12,0.00
2013-9-4,84.0,68.4,54.6,68.0,60.8,53.2,96,79,51,30.17,30.08,5,0,9,0.00
2013-9-5,85.8,70.4,57.1,70.5,63.0,56.0,96,80,47,30.22,30.13,3,0,8,0.00
2013-9-6,85.0,72.7,59.1,70.9,65.2,57.6,96,80,49,30.19,30.04,6,1,11,0.00
2013-9-7,88.3,75.5,62.3,74.8,67.8,60.8,96,79,52,30.07,29.93,7,2,16,0.00
2013-9-8,81.8,75.7,70.8,76.7,71.9,68.1,95,88,80,29.99,29.91,5,1,8,0.18
2013-9-9,95.0,81.6,72.6,82.2,74.2,70.6,95,80,53,29.97,29.91,9,3,14,0.00
2013-9-10,95.3,82.9,74.1,77.3,73.9,70.8,93,76,47,30.08,29.97,7,2,14,0.00
2013-9-11,94.1,81.4,71.9,77.0,72.0,68.1,94,75,45,30.13,30.02,7,2,13,0.00
2013-9-12,82.8,74.7,63.4,71.5,65.6,53.7,91,74,54,30.07,29.96,8,2,14,0.03
2013-9-13,72.0,62.9,53.9,58.5,52.6,46.4,94,71,42,30.13,30.03,12,4,20,0.00
2013-9-14,73.8,59.1,44.4,54.7,48.4,42.8,94,70,39,30.18,30.07,4,0,10,0.00
2013-9-15,78.3,64.9,49.5,62.6,54.4,46.8,93,71,44,30.11,30.00,8,2,18,0.00
2013-9-16,70.0,64.3,56.0,62.7,58.8,53.1,94,83,69,30.27,30.08,12,6,19,0.00
2013-9-17,76.2,65.5,54.7,66.3,57.6,52.4,92,77,54,30.27,30.09,6,1,12,0.00
2013-9-18,81.7,72.1,63.1,73.3,67.1,60.1,96,85,70,30.11,29.98,9,4,15,0.53
2013-9-19,88.0,78.4,71.7,74.8,71.9,69.5,94,81,59,30.01,29.87,10,7,19,0.04
2013-9-20,76.8,70.2,60.9,71.6,67.8,57.1,96,92,84,29.92,29.84,8,2,13,0.18
2013-9-21,70.3,60.3,52.1,57.1,53.3,49.6,94,79,54,29.95,29.87,10,3,19,0.01
2013-9-22,74.7,59.7,48.1,57.4,51.2,46.7,96,76,42,30.04,29.94,5,1,13,0.01
2013-9-23,74.4,61.7,48.9,54.7,51.2,47.2,95,71,40,30.07,29.97,8,2,16,0.00
2013-9-24,79.3,66.3,52.8,63.8,57.9,50.1,92,76,54,29.99,29.83,8,2,16,0.17
2013-9-25,82.0,69.7,60.6,68.3,63.3,59.1,96,82,54,29.88,29.81,6,1,11,0.00
2013-9-26,81.8,70.3,59.7,66.4,60.7,54.1,95,74,47,30.04,29.88,6,1,11,0.00
2013-9-27,80.4,67.5,51.2,61.4,56.7,49.2,94,70,47,30.14,30.03,9,2,16,0.00
2013-9-28,81.8,70.5,59.0,65.9,60.1,55.8,90,71,50,30.10,29.97,17,6,27,0.00
2013-9-29,75.3,65.6,56.2,63.2,58.6,54.2,95,80,49,30.05,29.96,9,2,13,0.20
2013-9-30,74.0,65.3,56.2,65.8,62.4,54.8,96,91,73,30.01,29.92,10,2,17,0.01
2013-10-1,75.7,68.8,62.1,70.6,66.2,60.7,96,92,83,30.05,29.97,9,3,17,0.00
2013-10-2,79.7,71.6,66.2,72.4,68.7,65.0,96,91,78,30.08,29.99,8,2,14,0.01
2013-10-3,83.0,73.7,67.7,72.2,68.3,66.0,96,84,63,30.01,29.90,12,5,22,0.05
2013-10-4,84.0,74.9,67.6,73.0,69.1,64.9,95,83,65,30.01,29.93,12,6,23,0.00
2013-10-5,79.5,71.0,61.1,73.3,68.9,59.3,96,93,80,29.97,29.80,9,5,29,0.87
2013-10-6,62.6,56.1,50.3,59.0,48.1,42.1,95,76,54,29.90,29.82,10,2,24,0.01
2013-10-7,69.6,55.4,45.6,53.5,48.6,43.4,95,80,48,30.16,29.89,8,2,24,0.00
2013-10-8,72.3,59.3,45.3,55.7,49.8,44.0,96,74,47,30.24,30.16,7,1,15,0.00
2013-10-9,76.2,59.6,44.6,59.5,51.7,42.7,94,77,49,30.22,30.12,5,0,10,0.00
2013-10-10,79.0,65.1,51.3,64.8,58.4,49.8,96,81,52,30.17,30.03,7,1,13,0.00
2013-10-11,78.8,67.3,58.5,64.4,59.0,56.2,93,76,51,30.06,29.95,10,4,18,0.00
2013-10-12,72.2,64.6,58.8,67.1,60.7,50.8,95,88,75,30.19,29.98,8,3,12,0.11
2013-10-13,72.2,59.1,47.3,50.8,43.3,36.1,87,60,29,30.38,30.19,12,3,18,0.00
2013-10-14,69.1,57.1,43.4,54.9,46.6,38.6,86,69,48,30.36,30.10,5,1,11,0.00
2013-10-15,65.9,63.3,59.9,64.4,59.9,52.4,95,89,74,30.10,29.90,11,5,21,0.22
2013-10-16,60.6,53.1,43.2,54.0,45.9,41.3,94,77,59,30.04,29.95,8,2,14,0.00
2013-10-17,62.1,50.6,42.4,49.1,45.4,40.8,95,84,53,30.03,29.95,8,1,19,0.02
2013-10-18,63.4,52.4,45.4,49.8,44.7,40.9,90,76,58,30.07,29.98,6,2,13,0.00
2013-10-19,57.2,47.0,40.4,43.8,39.7,36.1,94,78,47,30.03,29.98,10,2,20,0.22
2013-10-20,67.0,51.6,45.2,46.4,41.5,38.4,77,69,44,30.01,29.92,19,8,28,0.22
2013-10-21,54.3,49.2,35.6,48.3,42.9,33.5,92,79,66,30.08,29.95,9,3,15,0.00
2013-10-22,54.9,43.1,33.4,45.4,38.1,32.0,95,83,63,30.10,29.83,10,3,19,0.13
2013-10-23,48.0,42.3,38.2,38.1,34.8,29.3,93,76,51,30.16,29.96,11,3,20,0.00
2013-10-24,44.6,40.1,31.2,37.1,30.2,25.5,92,69,50,30.43,30.15,11,3,21,0.00
2013-10-25,52.3,38.7,24.9,33.9,28.5,23.2,93,69,41,30.55,30.29,7,1,12,0.00
2013-10-26,63.6,48.8,36.8,45.5,35.2,28.9,78,60,45,30.29,30.01,12,5,25,0.00
2013-10-27,59.6,43.0,29.5,37.1,32.1,27.6,94,69,36,30.17,30.07,3,0,10,0.00
2013-10-28,64.4,44.6,30.8,41.2,36.5,28.8,93,75,41,30.30,30.11,0,0,5,0.00
2013-10-29,55.9,52.1,44.9,54.7,45.8,35.3,96,80,57,30.30,30.11,7,2,10,0.29
2013-10-30,72.7,64.7,55.8,67.2,61.2,54.4,96,89,75,30.11,29.88,14,5,25,0.05
2013-10-31,67.2,62.2,51.4,64.4,60.2,48.8,95,93,89,29.88,29.36,18,9,30,1.04
2013-11-1,60.5,52.1,45.9,50.3,46.0,42.0,95,81,58,29.86,29.62,9,4,18,0.01
2013-11-2,49.2,45.6,44.0,42.6,41.5,41.0,89,86,78,29.89,29.86,1,0,5,0.01
2013-11-3,44.0,44.0,44.0,41.0,41.0,41.0,89,89,89,29.89,29.89,0,0,0,0.00
2013-11-4,44.0,44.0,44.0,41.0,41.0,41.0,89,89,89,29.89,29.89,0,0,0,0.00
2013-11-5,44.0,44.0,44.0,41.0,41.0,41.0,89,89,89,29.89,29.89,0,0,0,0.00
2013-11-6,57.7,46.8,39.6,54.5,43.9,36.6,94,90,86,30.26,29.89,17,4,29,0.18
2013-11-7,51.8,40.8,30.8,40.0,35.1,28.8,94,81,61,30.41,30.26,6,1,10,0.01
2013-11-8,54.7,43.8,28.9,39.8,32.9,27.4,95,68,44,30.43,30.19,11,4,17,0.01
2013-11-9,64.7,53.6,46.8,44.9,40.5,34.1,78,62,46,30.24,30.09,14,6,22,0.00
2013-11-10,48.8,44.4,35.7,40.5,35.5,31.4,87,71,58,30.45,30.24,9,1,15,0.00
2013-11-11,60.7,45.4,32.3,47.7,36.7,29.3,91,74,48,30.48,30.15,23,6,32,0.04
2013-11-12,32.1,27.7,23.0,29.2,22.4,19.7,90,80,66,30.76,30.49,18,8,22,0.00
2013-11-13,24.4,22.6,17.7,21.9,19.9,15.4,93,89,88,30.76,30.73,0,0,0,0.00
2013-11-14,48.2,46.5,24.4,27.8,27.0,21.9,90,47,43,30.73,30.12,11,9,22,0.00
2013-11-15,48.1,47.6,43.9,31.8,30.3,26.9,56,51,45,30.13,30.10,9,7,14,0.00
2013-11-16,63.7,57.3,48.1,60.1,49.7,31.8,92,77,53,30.11,29.73,19,12,36,0.01
2013-11-17,73.8,63.7,49.2,66.7,54.2,38.2,91,74,33,29.95,29.39,26,12,44,1.39
2013-11-18,49.2,45.1,44.8,42.9,41.1,40.9,86,86,79,30.03,29.95,5,1,9,0.00
2013-11-19,38.3,37.5,31.3,31.0,29.9,27.3,85,74,72,30.40,0.00,6,3,9,0.00
2013-11-20,51.2,40.6,32.8,39.4,33.0,28.7,85,74,63,30.40,30.13,10,6,17,0.00
2013-11-21,51.5,50.0,47.5,50.4,45.3,39.2,96,85,64,30.22,30.15,9,4,14,0.60
2013-11-22,51.2,45.0,42.5,50.1,43.5,40.6,96,94,92,30.42,30.20,15,6,24,0.00
2013-11-23,42.8,32.0,21.2,41.2,26.3,14.4,94,80,69,30.75,30.42,17,10,27,0.00
2013-11-24,28.1,22.8,16.7,17.4,13.4,8.7,82,68,45,30.83,30.56,9,4,15,0.00
2013-11-25,34.2,29.3,24.4,26.8,20.5,16.0,77,70,64,30.57,30.22,8,4,9,0.00
2013-11-26,35.1,32.5,24.5,28.9,25.0,13.0,85,74,57,30.25,30.12,18,4,30,0.00
2013-11-27,25.1,21.1,17.6,14.6,12.3,10.3,86,69,62,30.39,30.24,13,8,21,0.00
2013-11-28,44.0,30.5,18.0,26.3,20.4,13.7,83,68,47,30.54,30.30,14,3,25,0.00
2013-11-29,44.8,33.9,22.0,28.5,24.4,18.1,86,69,50,30.65,30.44,6,2,11,0.00
2013-11-30,54.7,43.1,32.1,36.9,32.1,26.3,80,66,46,30.44,30.15,13,6,22,0.00
2013-12-1,56.9,44.9,35.2,42.4,37.5,32.8,92,76,57,30.15,29.94,7,1,11,0.00
2013-12-2,55.3,46.0,37.5,47.9,41.0,33.7,91,83,74,29.94,29.73,7,2,11,0.00
2013-12-3,57.7,50.9,42.3,52.9,47.9,40.1,96,90,79,29.77,29.68,14,5,22,0.00
2013-12-4,66.8,56.6,46.8,59.3,53.1,42.1,96,88,75,29.84,29.56,19,7,35,0.00
2013-12-5,46.6,30.4,22.8,41.9,26.3,19.1,93,85,74,30.32,29.84,12,6,19,0.00
2013-12-6,23.4,21.9,17.5,20.9,17.0,9.4,92,81,69,30.61,30.28,14,10,21,0.00
2013-12-7,22.7,17.3,10.1,15.1,10.0,6.0,84,73,61,30.75,30.52,11,5,17,0.00
2013-12-8,28.2,25.3,21.6,26.4,21.8,14.5,94,86,74,30.52,30.05,12,6,17,0.00
2013-12-9,28.2,25.3,22.6,26.1,19.5,16.4,92,79,69,30.35,30.12,7,2,18,0.00
2013-12-10,32.6,23.1,15.7,19.4,16.0,12.0,88,75,55,30.39,30.30,12,3,22,0.00
2013-12-11,32.2,21.9,10.1,24.5,15.9,3.8,91,78,60,30.70,30.37,15,4,22,0.00
2013-12-12,28.0,16.7,4.0,16.7,7.9,0.7,95,69,51,30.70,30.35,12,3,18,0.00
2013-12-13,37.7,30.7,21.9,32.6,24.7,16.5,94,79,58,30.35,30.05,13,5,21,0.07
2013-12-14,34.9,33.0,27.5,33.7,31.2,24.9,96,93,87,30.14,29.86,14,5,23,0.33
2013-12-15,31.7,27.3,22.6,29.1,23.4,18.5,92,85,77,30.23,30.10,8,4,17,0.00
2013-12-16,36.9,31.0,26.3,33.2,28.9,24.8,95,92,85,30.15,30.06,11,2,16,0.08
2013-12-17,37.7,29.9,24.9,32.3,26.4,22.9,94,87,79,30.31,30.15,12,4,18,0.00
2013-12-18,44.4,35.6,22.4,37.3,25.6,18.8,88,68,48,30.32,30.00,14,7,25,0.00
2013-12-19,55.9,50.2,43.4,50.6,44.6,37.3,84,81,76,30.02,29.84,16,11,31,0.00
2013-12-20,64.3,55.7,38.3,59.5,52.2,36.7,94,88,83,29.87,29.73,18,11,31,0.58
2013-12-21,38.6,36.1,34.8,37.0,34.7,33.2,95,95,94,29.86,29.50,14,7,19,1.20
2013-12-22,37.0,34.5,30.3,34.7,32.1,26.3,96,91,82,30.27,29.64,11,5,20,0.01
2013-12-23,30.4,24.3,14.1,27.0,19.3,7.9,87,81,73,30.60,30.27,12,5,20,0.00
2013-12-24,22.7,16.7,8.9,15.2,7.5,2.3,80,68,47,30.69,30.45,9,4,16,0.00
2013-12-25,34.8,30.1,22.2,30.5,23.5,14.9,86,76,71,30.46,30.28,10,5,19,0.00
2013-12-26,43.4,35.0,25.8,31.0,28.2,23.3,92,77,57,30.44,30.31,11,5,17,0.00
2013-12-27,49.9,39.9,31.2,37.0,32.6,27.3,86,76,60,30.42,30.28,10,5,17,0.00
2013-12-28,52.9,43.3,36.4,37.4,34.1,31.4,86,71,54,30.28,29.95,11,6,18,0.00
2013-12-29,43.0,31.6,18.0,34.7,26.6,13.4,90,82,66,30.28,29.87,12,6,22,0.00
2013-12-30,26.2,17.6,10.5,17.4,9.6,5.9,89,71,52,30.41,30.27,11,4,16,0.00
2013-12-31,39.4,31.5,23.8,28.7,21.8,16.6,77,68,54,30.47,30.23,12,4,18,0.00
2014-1-1,45.0,37.4,27.6,32.7,30.4,26.0,94,76,61,30.23,30.03,12,6,18,0.00
2014-1-2,27.5,17.7,8.1,26.0,14.3,4.5,94,86,81,30.51,30.02,16,9,27,0.00